This demonstration page uses our WeatherBlox Daily Observations layout. Learn more.

Left ArrowRight Arrow

Hourly Observations for January 11, 2016

Temp ( °F °C ) Dew Point ( °F °C ) Humidity (%) Winds ( mph kmh ) Pressure ( in mb ) Visibility ( mi km ) Precip ( " mm )
12:51 am 00:51 Cloudy 38 3.3 34 1.1 86 86 N N/A 30.12 1020 10 16 N/A
1:51 am 01:51 Cloudy 36 2.2 33 0.6 89 89 N N/A 30.12 1020 10 16 N/A
2:51 am 02:51 Clear 33 0.6 31 -0.6 92 92 N N/A 30.13 1020 10 16 N/A
3:51 am 03:51 Mostly Cloudy 34 1.1 32 undefined 92 92 N N/A 30.13 1020 10 16 N/A
4:51 am 04:51 Partly Cloudy 31 -0.6 29 -1.7 92 92 W 5 7 30.14 1021 10 16 N/A
5:51 am 05:51 Mostly Clear 30 -1.1 29 -1.7 96 96 N N/A 30.16 1021 10 16 N/A
6:51 am 06:51 Clear 29 -1.7 28 -2.2 96 96 N N/A 30.18 1022 10 16 N/A
7:51 am 07:51 Sunny 30 -1.1 28 -2.2 92 92 N N/A 30.21 1023 10 16 N/A
8:51 am 08:51 Sunny 35 1.7 32 undefined 89 89 S 5 7 30.22 1024 10 16 N/A
9:51 am 09:51 Sunny 38 3.3 31 -0.6 76 76 SSW 5 7 30.24 1024 10 16 N/A
10:51 am 10:51 Hazy 43 6.1 29 -1.7 58 58 VRB 3 6 30.24 1024 1 1 N/A
11:00 am 11:00 Hazy 44 6.7 29 -1.7 55 55 NNW 5 7 30.24 1024 3 5 N/A
11:28 am 11:28 Hazy 45 7.2 27 -2.8 49 49 W 3 6 30.24 1024 1 1 N/A
11:30 am 11:30 Hazy 46 7.8 28 -2.2 50 50 N N/A 30.24 1024 4 6 N/A
11:51 am 11:51 Sunny 47 8.3 28 -2.2 48 48 NW 5 7 30.20 1023 10 16 N/A
12:51 pm 12:51 Sunny 48 8.9 28 -2.2 46 46 W 8 13 30.17 1022 N/A N/A
1:51 pm 13:51 Sunny 51 10.6 27 -2.8 39 39 WNW 9 15 30.15 1021 N/A N/A
2:51 pm 14:51 Sunny 51 10.6 27 -2.8 39 39 WNW 7 11 30.14 1021 10 16 N/A
3:51 pm 15:51 Sunny 50 10 24 -4.4 36 36 WSW 8 13 30.16 1021 10 16 N/A
4:51 pm 16:51 Sunny 50 10 25 -3.9 38 38 W 8 13 30.18 1022 10 16 N/A
5:51 pm 17:51 Clear 44 6.7 30 -1.1 58 58 WNW 6 9 30.21 1023 10 16 N/A
6:51 pm 18:51 Clear 39 3.9 30 -1.1 70 70 NNW 6 9 30.24 1024 10 16 N/A
7:51 pm 19:51 Clear 38 3.3 29 -1.7 70 70 N 3 6 30.24 1024 10 16 N/A
8:51 pm 20:51 Clear 34 1.1 29 -1.7 82 82 N N/A 30.25 1025 10 16 N/A
9:51 pm 21:51 Clear 33 0.6 28 -2.2 82 82 SSE 6 9 30.26 1025 10 16 N/A
10:51 pm 22:51 Clear 31 -0.6 28 -2.2 89 89 N N/A 30.27 1025 10 16 N/A
11:51 pm 23:51 Clear 30 -1.1 27 -2.8 88 88 ENE 6 9 30.25 1024 10 16 N/A

Powered by AerisWeather